This is the latest recevied weather packets stored in our database for station/object N7CEE. If no packets are shown the sender has not sent any weather packets the latest 10 day(s).
| Time | Temp. | Humidity | Pressure | Rain* | Wind** | Luminosity | Snow |
|---|---|---|---|---|---|---|---|
| 1777493222 | 19.44° C | 19% | 1023.4 hPa | 0 mm | - | 830 W/m² | - |
| 1777492918 | 18.89° C | 19% | 1023.6 hPa | 0 mm | - | 833 W/m² | - |
| 1777491401 | 17.78° C | 18% | 1024 hPa | 0 mm | - | 845 W/m² | - |
| 1777490485 | 18.33° C | 19% | 1024.1 hPa | 0 mm | - | 846 W/m² | - |
| 1777488364 | 17.22° C | 18% | 1024.4 hPa | 0 mm | - | 834 W/m² | - |
| 1777482600 | 15.56° C | 22% | 1025.5 hPa | 0 mm | - | 689 W/m² | - |
| 1777480782 | 13.33° C | 26% | 1025.6 hPa | 0 mm | - | 612 W/m² | - |
| 1777480479 | 12.78° C | 25% | 1025.8 hPa | 0 mm | - | 600 W/m² | - |
| 1777480175 | 13.89° C | 25% | 1025.7 hPa | 0 mm | - | 582 W/m² | - |
| 1777479569 | 12.78° C | 26% | 1025.7 hPa | 0 mm | - | 554 W/m² | - |
| 1777479267 | 12.22° C | 27% | 1025.8 hPa | 0 mm | - | 142 W/m² | - |
| 1777478660 | 12.22° C | 26% | 1025.7 hPa | 0 mm | - | 58 W/m² | - |
| 1777477749 | 11.11° C | 31% | 1026 hPa | 0 mm | - | 34 W/m² | - |
| 1777477142 | 10.56° C | 31% | 1025.8 hPa | 0 mm | - | 59 W/m² | - |
| 1777476838 | 10.56° C | 31% | 1026.1 hPa | 0 mm | - | 110 W/m² | - |
| 1777476536 | 10.56° C | 32% | 1025.8 hPa | 0 mm | - | 34 W/m² | - |
| 1777475321 | 10° C | 32% | 1026 hPa | 0 mm | - | 44 W/m² | - |
| 1777474713 | 10° C | 34% | 1025.7 hPa | 0 mm | - | 30 W/m² | - |
| 1777473500 | 8.33° C | 36% | 1025.8 hPa | 0 mm | - | 69 W/m² | - |
| 1777472892 | 7.78° C | 38% | 1026.1 hPa | 0 mm | - | 27 W/m² | - |
| 1777472589 | 7.22° C | 39% | 1025.7 hPa | 0 mm | - | 46 W/m² | - |
| 1777472286 | 6.67° C | 40% | 1025.7 hPa | 0 mm | - | 123 W/m² | - |
| 1777471678 | 5.56° C | 43% | 1025.8 hPa | 0 mm | - | 52 W/m² | - |
| 1777471375 | 5.56° C | 43% | 1025.7 hPa | 0 mm | - | 54 W/m² | - |
| 1777471072 | 5° C | 45% | 1025.6 hPa | 0 mm | - | 32 W/m² | - |
* Rain latest hour (hover to see other rain measurements)
** Current wind speed in m/s (hover to see current wind gust speed)